Tracking 25963 objects as of 13-Aug-2022
HD Live streaming from Space Station
objects crossing your sky now

ONEWEB-0023

Track ONEWEB-0023 now!
10-day predictions
ONEWEB-0023 is classified as:


NORAD ID: 45136
Int'l Code: 2020-008F
Perigee: 1,227.6 km
Apogee: 1,230.1 km
Inclination: 87.9 °
Period: 109.9 minutes
Semi major axis: 7599 km
RCS: Unknown
Launch date: February 6, 2020
Source: United Kingdom (UK)
Launch site: TYURATAM MISSILE AND SPACE COMPLEX (TTMTR)
aabbcc
Your satellite tracking list
Your tracking list is empty




NASA's NSSDC Master Catalog

Two Line Element Set (TLE):
1 45136U 20008F   22224.78239472  .00000677  00000-0  19036-2 0  9994
2 45136  87.8890 315.4816 0001619 117.8989 242.2303 13.10375133124908
Source of the keplerian elements: AFSPC